"Pseudo-MPEC" for W01802

Created 2023 Dec 2 0:22:08 UT using Find_Orb

Click here for an explanation of pseudo-MPECs

 
 Astrometry: 
     W01802 * C2023 11 10IutlFq/kpK)VTQ(e6+Fqt1XTAstrometry]#'M,ww(rC(iRt9XWJO18
     W01802   C2023 11 102.RxD^xoX0'3ej-lredacted;v*CX@aEM5_+l/=U;oyynclickIXO18
     W01802   C2023 11 10XPE^o5k1O_D,Z+Q-here@forj8fSexplanation/Ao%unsDQN%iDO18

Station data:
(O18) WFST, Lenghu  (N38.607601 E93.895220).

Orbital elements:  W01802
   Perihelion 2082 Oct 11.78832 +/- 16169 TT = 18:55:10 (JD 2481779.28832)
Epoch 2023 Nov 11.0 TT = JDT 2460259.5                           AutoNEOCP
M 328.75954227 +/- 18               (J2000 ecliptic)
n   0.00145170 +/-                  Peri.  237.90488 +/- 60
a  77.2472665 +/-                   Node   229.38787 +/- 31
e   0.3440765 +/- 0.235             Incl.   60.15823 +/- 33
P 678.93                   H  4.54  G  0.15   U 10.2  SR
q 50.6682920 +/- 17.9    Q 103.826240 +/- 226
From 3 observations 2023 Nov. 10 (41.5 min); mean residual 0".09
Residuals in arcseconds: 
231110 O18  .07+  .05-    231110 O18  .14-  .10+    231110 O18  .08+  .05-    

Ephemerides (geocentric):
Date (UTC) HH   RA             Dec           delta  r     elong  mag " sig PA
---- --------  ------------   ------------  ------ ------ -----  --- --------
2023 12 02 00  02 55 02.027   +20 04 10.29  57.604 58.518 157.8 22.3 457'  81
2023 12 02 01  02 55 01.883   +20 04 09.30  57.605 58.518 157.7 22.3 465'  81
2023 12 02 02  02 55 01.740   +20 04 08.31  57.605 58.518 157.7 22.3 473'  81
2023 12 02 03  02 55 01.596   +20 04 07.31  57.605 58.518 157.6 22.3 481'  81
2023 12 02 04  02 55 01.453   +20 04 06.32  57.605 58.518 157.6 22.3 489'  81
2023 12 02 05  02 55 01.310   +20 04 05.32  57.606 58.518 157.6 22.3 497'  80
2023 12 02 06  02 55 01.166   +20 04 04.33  57.606 58.518 157.5 22.3 505'  80
2023 12 02 07  02 55 01.023   +20 04 03.34  57.606 58.518 157.5 22.3 513'  80
2023 12 02 08  02 55 00.880   +20 04 02.34  57.606 58.518 157.4 22.3 521'  80
2023 12 02 09  02 55 00.737   +20 04 01.35  57.607 58.518 157.4 22.3 529'  80
2023 12 02 10  02 55 00.594   +20 04 00.36  57.607 58.518 157.3 22.3 537'  80
2023 12 02 11  02 55 00.450   +20 03 59.36  57.607 58.518 157.3 22.3 545'  79
2023 12 02 12  02 55 00.307   +20 03 58.37  57.607 58.518 157.3 22.3 552'  79
2023 12 02 13  02 55 00.165   +20 03 57.38  57.608 58.518 157.2 22.3 560'  79
2023 12 02 14  02 55 00.022   +20 03 56.39  57.608 58.518 157.2 22.3 568'  79
2023 12 02 15  02 54 59.879   +20 03 55.39  57.608 58.518 157.1 22.3 576'  79
2023 12 02 16  02 54 59.736   +20 03 54.40  57.609 58.518 157.1 22.3 583'  79
2023 12 02 17  02 54 59.593   +20 03 53.41  57.609 58.518 157.1 22.3 591'  79
2023 12 02 18  02 54 59.450   +20 03 52.42  57.609 58.518 157.0 22.3 598'  78
2023 12 02 19  02 54 59.308   +20 03 51.43  57.609 58.518 157.0 22.3 605'  78
2023 12 02 20  02 54 59.165   +20 03 50.43  57.610 58.518 156.9 22.3 612'  78
2023 12 02 21  02 54 59.023   +20 03 49.44  57.610 58.518 156.9 22.3 620'  78
2023 12 02 22  02 54 58.880   +20 03 48.45  57.610 58.518 156.8 22.3 627'  78
2023 12 02 23  02 54 58.738   +20 03 47.46  57.610 58.518 156.8 22.3 633'  78
2023 12 03 00  02 54 58.595   +20 03 46.47  57.611 58.518 156.8 22.3 640'  78
2023 12 03 01  02 54 58.453   +20 03 45.48  57.611 58.518 156.7 22.3 647'  78
2023 12 03 02  02 54 58.311   +20 03 44.48  57.611 58.518 156.7 22.3 653'  78
2023 12 03 03  02 54 58.169   +20 03 43.49  57.611 58.518 156.6 22.3 660'  77
2023 12 03 04  02 54 58.026   +20 03 42.50  57.612 58.518 156.6 22.3 666'  77
2023 12 03 05  02 54 57.884   +20 03 41.51  57.612 58.518 156.5 22.3 672'  77
2023 12 03 06  02 54 57.742   +20 03 40.52  57.612 58.518 156.5 22.3 678'  77
2023 12 03 07  02 54 57.600   +20 03 39.53  57.612 58.518 156.5 22.3 684'  77
2023 12 03 08  02 54 57.458   +20 03 38.54  57.613 58.518 156.4 22.3 690'  77
2023 12 03 09  02 54 57.316   +20 03 37.55  57.613 58.518 156.4 22.3 695'  77
2023 12 03 10  02 54 57.175   +20 03 36.56  57.613 58.517 156.3 22.3 701'  77
2023 12 03 11  02 54 57.033   +20 03 35.57  57.614 58.517 156.3 22.3 706'  77
2023 12 03 12  02 54 56.891   +20 03 34.58  57.614 58.517 156.2 22.3 712'  77
2023 12 03 13  02 54 56.749   +20 03 33.59  57.614 58.517 156.2 22.3 717'  77
2023 12 03 14  02 54 56.608   +20 03 32.60  57.614 58.517 156.2 22.3 722'  77
2023 12 03 15  02 54 56.466   +20 03 31.61  57.615 58.517 156.1 22.3 727'  77
2023 12 03 16  02 54 56.325   +20 03 30.62  57.615 58.517 156.1 22.3 732'  77
2023 12 03 17  02 54 56.183   +20 03 29.63  57.615 58.517 156.0 22.3 736'  77
2023 12 03 18  02 54 56.042   +20 03 28.64  57.615 58.517 156.0 22.3 741'  77
2023 12 03 19  02 54 55.900   +20 03 27.65  57.616 58.517 156.0 22.3 745'  77
2023 12 03 20  02 54 55.759   +20 03 26.66  57.616 58.517 155.9 22.3 750'  76
2023 12 03 21  02 54 55.618   +20 03 25.67  57.616 58.517 155.9 22.3 754'  76
2023 12 03 22  02 54 55.477   +20 03 24.68  57.617 58.517 155.8 22.3 758'  76
2023 12 03 23  02 54 55.336   +20 03 23.70  57.617 58.517 155.8 22.3 762'  76